KF4DEW Weather Reports


time (UTC)temp
F
wind
direction
speed
knots
gust
knots
rain 1hr
in
rain 24hr
in
rain mn
in
humidity
%
barometer
mb
20260506044614 69 324 0.0 1.7 0.00 0.00 0.00 63 1010.8
20260506043058 69 263 0.0 1.7 0.00 0.00 0.00 62 1010.8
20260506041557 69 155 0.0 0.9 0.00 0.00 0.00 61 1010.7
20260506040054 69 173 0.0 0.0 0.00 0.00 0.00 61 1010.7
20260506034553 70 171 0.0 0.9 0.00 0.00 0.00 61 1010.9
20260506033055 70 290 0.0 0.9 0.00 0.00 0.00 60 1011.3
20260506031557 70 252 0.0 0.9 0.00 0.00 0.00 59 1011.2
20260506030052 70 17 0.0 0.9 0.00 0.00 0.00 58 1011.0
20260506024559 71 285 0.0 4.3 0.00 0.00 0.00 57 1011.5
20260506023053 71 109 0.0 2.6 0.00 0.00 0.00 57 1011.2
20260506021551 71 155 0.0 2.6 0.00 0.00 0.00 57 1010.8
20260506020050 71 160 0.0 2.6 0.00 0.00 0.00 57 1010.7
20260506014549 70 226 0.0 1.7 0.00 0.00 0.00 58 1010.5
20260506013049 69 103 0.0 0.9 0.00 0.00 0.00 58 1010.4
20260506011548 69 115 0.0 0.0 0.00 0.00 0.00 58 1010.3
20260506010048 69 130 0.0 0.9 0.00 0.00 0.00 60 1010.1
20260506004549 69 70 0.0 0.9 0.00 0.00 0.00 59 1010.2
20260506003047 68 70 0.0 0.0 0.00 0.00 0.00 59 1010.2
20260506001550 68 70 0.0 0.9 0.00 0.00 0.00 68 1010.4
20260506000045 69 70 0.0 0.0 0.00 0.00 0.00 65 1010.6
20260505234549 70 70 0.0 0.0 0.00 0.00 0.00 60 1010.4
20260505233043 70 83 0.0 0.0 0.00 0.00 0.00 61 1010.5
20260505231552 71 83 0.0 0.9 0.00 0.00 0.00 58 1010.5
20260505230054 71 70 0.0 0.9 0.00 0.00 0.00 57 1010.4
20260505224542 71 70 0.0 0.9 0.00 0.00 0.00 54 1010.2
20260505223040 71 69 0.0 0.9 0.00 0.00 0.00 53 1010.6
20260505221540 71 69 0.0 0.9 0.00 0.00 0.00 51 1010.3
20260505220040 71 172 0.0 1.7 0.00 0.00 0.00 54 1010.6
20260505214539 72 152 0.0 0.9 0.00 0.00 0.00 56 1010.3
20260505213047 73 10 0.0 4.3 0.00 0.00 0.00 50 1010.6
20260505211536 75 191 0.9 3.5 0.00 0.00 0.00 44 1010.8
20260505210036 76 163 0.0 2.6 0.00 0.00 0.00 40 1011.2
20260505204533 77 203 0.9 4.3 0.00 0.00 0.00 36 1011.0
20260505203031 79 354 0.9 4.3 0.00 0.00 0.00 39 1011.3
20260505201528 80 308 0.0 2.6 0.00 0.00 0.00 41 1011.5
20260505200028 81 113 1.7 7.0 0.00 0.00 0.00 38 1011.8
20260505194525 82 328 1.7 3.5 0.00 0.00 0.00 37 1011.6
20260505193022 82 146 1.7 6.1 0.00 0.00 0.00 36 1011.9
20260505191522 80 136 0.9 7.0 0.00 0.00 0.00 35 1012.0
20260505190021 81 184 0.9 5.2 0.00 0.00 0.00 38 1012.1
20260505184515 81 333 1.7 5.2 0.00 0.00 0.00 35 1012.0
20260505183013 80 293 0.9 8.7 0.00 0.00 0.00 40 1012.5
20260505181509 81 163 0.9 4.3 0.00 0.00 0.00 38 1013.0
20260505180019 80 297 0.9 5.2 0.00 0.00 0.00 44 1012.9
20260505174504 79 224 0.0 7.0 0.00 0.00 0.00 46 1012.9
20260505173002 78 319 0.0 3.5 0.00 0.00 0.00 45 1013.2
20260505171600 78 188 0.0 2.6 0.00 0.00 0.00 46 1013.6
20260505170059 77 108 0.0 4.3 0.00 0.00 0.00 46 1013.9
20260505164555 77 316 0.9 3.5 0.00 0.00 0.00 52 1014.0
20260505163053 75 122 0.9 7.8 0.00 0.00 0.00 49 1014.1
20260505161553 74 338 0.0 4.3 0.00 0.00 0.00 54 1013.8
20260505153040 70 79 0.0 2.6 0.00 0.00 0.00 60 1014.4
20260505151536 69 311 0.9 2.6 0.00 0.00 0.00 65 1014.3
20260505124506 56 113 0.0 0.0 0.00 0.00 0.00 80 1014.2
20260505123002 55 113 0.0 0.0 0.00 0.00 0.00 85 1014.0
20260505121601 53 113 0.0 0.0 0.00 0.00 0.00 89 1013.7
20260505120105 51 113 0.0 0.0 0.00 0.00 0.00 92 1013.9
20260505114601 50 113 0.0 0.0 0.00 0.00 0.00 91 1013.6
20260505113056 50 113 0.0 0.0 0.00 0.00 0.00 91 1013.5
20260505111554 49 113 0.0 0.0 0.00 0.00 0.00 90 1013.4
20260505101600 51 113 0.0 0.0 0.00 0.00 0.00 87 1012.8
20260505100059 51 113 0.0 0.0 0.00 0.00 0.00 86 1012.5
20260505094539 52 119 0.0 0.0 0.00 0.00 0.00 86 1012.6
20260505093038 52 119 0.0 0.0 0.00 0.00 0.00 84 1012.7
20260505091534 53 119 0.0 0.0 0.00 0.00 0.00 83 1012.8
20260505090033 53 119 0.0 0.0 0.00 0.00 0.00 82 1012.7
20260505084531 54 119 0.0 0.9 0.00 0.00 0.00 83 1012.4
20260505083028 54 119 0.0 0.0 0.00 0.00 0.00 81 1012.8
20260505081526 54 119 0.0 0.9 0.00 0.00 0.00 81 1012.7
20260505080023 54 119 0.0 0.0 0.00 0.00 0.00 80 1012.8
20260505074522 55 119 0.0 0.0 0.00 0.00 0.00 80 1012.9
20260505073033 55 120 0.0 0.0 0.00 0.00 0.00 79 1013.0
20260505071518 55 119 0.0 0.0 0.00 0.00 0.00 78 1013.0
20260505070017 55 119 0.0 0.0 0.00 0.00 0.00 78 1012.9
20260505064518 56 119 0.0 0.9 0.00 0.00 0.00 77 1013.1
20260505063012 56 119 0.0 0.0 0.00 0.00 0.00 75 1013.1
20260505061520 56 119 0.0 0.0 0.00 0.00 0.00 75 1013.1
20260505060008 57 119 0.0 0.0 0.00 0.00 0.00 74 1013.0
20260505054507 57 119 0.0 0.0 0.00 0.00 0.00 74 1013.1
20260505053007 57 119 0.0 0.0 0.00 0.00 0.00 73 1013.1
20260505051507 58 119 0.0 0.0 0.00 0.00 0.00 71 1013.1